Location: Baumgarten
(49.0970°N, 12.7493°E)
Time: 19:07:13
(UTC+00:00)

SPOT 5 - Pass Details

Date: 05 July 2020
Orbit: 622 x 815 km, 98.3° (Epoch: 12 August)

Event Time Altitude Azimuth Distance (km) Brightness Sun altitude
Exits shadow 21:13:53 13° 187° (S) 2,074 4.8 -13.4°
Maximum altitude 21:18:12 49° 260° (W) 951 3.6 -13.7°
Drops below altitude 10° 21:22:52 10° 336° (NNW) 2,191 6.8 -14.1°
Sets 21:25:09 0° 342° (NNW) 3,083 8.0 -14.3°
